Theta_e
298 297 297 296 296 296 296 296 296 296 296 296 296 297 298 298 297 297 296 296 295 295 295 294 294 294 294 294 294 293 294 294 293 293 293 293 294 294 294 294 294 296 300 305 310 312 314 314 314 314 314 315 315 315 315 315 315 314 314 315 315 315 315 314 315 315 315 315 316 316 316 317 317 318 318 318 317 318 319 320 320 321 320 320 321
297 297 296 296 296 295 296 296 296 296 296 296 296 297 297 298 297 296 296 295 295 294 294 294 294 294 294 293 293 293 293 293 293 293 293 293 294 294 294 295 295 296 299 303 308 310 311 312 312 312 313 314 314 314 314 314 314 313 313 314 314 313 313 312 313 313 313 314 314 315 316 316 316 317 317 317 318 318 319 319 320 320 321 321 321
297 296 296 296 296 295 295 295 295 295 295 296 296 296 297 297 297 296 295 295 294 294 294 293 293 293 293 293 293 293 293 293 293 293 293 294 294 294 295 295 295 296 298 303 307 308 309 310 310 311 312 313 313 312 312 312 312 312 312 313 313 312 312 311 311 312 312 313 313 314 315 315 315 314 315 315 316 316 317 318 318 319 320 320 321
297 296 296 296 296 296 295 295 295 295 295 295 296 296 296 296 296 295 294 294 294 293 293 293 293 293 293 293 293 293 293 293 293 293 294 294 294 294 295 295 295 296 297 300 303 305 306 306 307 309 310 310 311 311 311 311 311 311 311 312 312 312 311 311 311 311 311 312 313 313 314 313 313 313 313 313 314 315 315 316 317 318 318 318 319
296 296 296 296 296 296 296 295 295 295 295 295 295 296 296 296 295 294 293 293 293 293 293 292 293 293 293 293 293 293 293 293 293 294 294 294 295 295 295 295 295 295 295 296 297 299 300 300 301 305 308 309 309 309 309 309 309 309 310 310 311 311 310 310 310 310 310 310 311 312 312 312 311 311 311 312 313 314 314 315 315 316 316 316 317
296 296 296 296 296 295 296 295 295 295 294 295 295 295 296 295 294 293 293 292 292 292 292 292 292 293 293 293 293 292 292 292 293 294 294 295 295 295 295 295 294 294 294 293 294 294 294 294 295 298 304 307 307 308 307 308 308 308 309 309 309 309 309 309 310 310 309 308 309 310 310 310 310 310 310 311 312 313 313 313 313 313 314 314 315
296 296 296 296 295 295 295 295 295 294 294 294 294 295 295 294 293 293 292 292 292 292 291 292 293 293 293 293 292 292 292 292 293 293 293 294 295 294 294 293 293 293 293 293 293 293 293 292 292 292 296 301 303 304 305 307 308 308 308 308 308 308 308 309 309 309 308 308 308 309 309 309 309 310 310 311 312 312 311 311 311 311 312 312 313
295 296 296 296 295 295 295 295 294 294 294 294 294 294 294 293 293 292 292 292 291 291 291 292 293 293 293 293 292 292 292 292 292 292 292 292 293 293 292 292 292 293 293 293 293 293 292 291 291 290 292 295 298 299 301 305 307 307 307 308 307 308 308 308 307 307 307 307 308 308 308 309 309 309 309 310 311 311 311 311 311 311 311 312 312
296 295 296 296 295 295 295 295 294 294 294 294 294 294 294 293 293 292 292 292 291 291 292 292 293 293 293 292 292 291 292 292 292 291 291 292 292 291 291 291 291 291 292 292 292 291 291 290 290 290 291 292 293 294 294 300 305 306 306 307 307 307 307 306 306 306 307 307 307 308 308 308 308 309 309 309 310 310 310 310 310 311 311 311 312
295 295 295 295 295 295 295 295 294 293 293 293 293 293 293 293 292 292 291 291 291 292 292 292 292 293 292 292 291 291 292 292 291 291 291 291 291 290 290 290 290 290 290 290 290 290 289 289 289 290 290 290 291 291 290 294 300 304 306 306 306 306 306 306 306 306 306 306 307 307 307 307 307 308 308 308 308 308 309 309 309 309 309 310 310
295 295 295 295 295 295 295 295 294 293 293 293 293 293 293 292 292 291 291 291 291 291 291 292 292 292 292 291 291 291 291 291 290 290 291 291 291 290 289 289 289 289 289 289 289 289 288 289 289 289 289 289 290 290 290 291 296 302 305 305 305 305 306 305 305 305 305 305 305 306 306 306 306 306 306 307 307 307 308 308 308 308 309 309 309
295 295 295 296 296 295 295 295 294 293 293 293 293 293 293 292 291 291 291 290 290 291 291 292 292 291 290 290 290 290 290 289 290 290 290 290 290 290 289 289 289 289 288 288 288 288 288 288 288 288 289 289 289 289 290 290 293 299 304 304 304 305 305 304 304 303 304 304 304 304 304 304 304 305 305 305 305 306 306 307 307 307 308 308 309
295 295 295 296 296 296 295 295 294 293 293 293 293 293 293 292 291 290 290 291 290 290 291 292 292 291 290 290 289 289 289 289 289 289 289 289 289 289 289 288 289 288 288 288 288 288 288 287 287 288 288 288 289 289 290 290 292 297 301 302 303 303 303 303 302 302 302 302 302 302 303 303 303 303 303 303 304 304 304 305 305 306 306 307 307
295 295 296 296 297 296 296 295 294 293 292 292 293 292 292 291 290 289 290 290 291 291 291 292 292 291 290 290 289 289 289 289 289 288 288 288 288 288 288 288 288 288 288 287 288 288 287 287 287 287 288 288 289 289 289 289 289 292 295 297 298 300 301 301 301 301 301 301 301 301 301 301 301 301 302 302 302 302 303 303 304 304 305 305 306
295 295 296 297 297 297 296 296 295 293 292 292 292 292 291 291 290 290 290 290 291 291 291 292 292 292 292 293 292 291 291 290 289 289 288 288 287 287 288 288 288 287 287 287 288 288 287 287 287 287 287 288 288 288 288 288 288 288 289 290 291 294 297 299 300 299 298 299 300 299 299 299 299 300 301 301 301 301 302 303 303 303 304 304 305
295 295 296 296 297 297 297 296 295 293 293 292 292 291 291 291 290 290 290 290 291 290 291 292 292 293 294 294 291 292 295 293 289 289 288 288 287 287 288 288 287 287 287 287 287 287 287 287 287 287 287 288 288 288 287 287 287 287 287 287 287 288 290 294 296 296 296 297 298 298 298 298 299 299 299 299 300 300 301 302 302 303 303 304 304
295 295 296 296 296 296 296 296 295 293 292 292 292 292 291 291 290 290 290 292 292 291 291 291 292 294 294 295 294 295 297 293 289 290 288 288 288 287 288 288 288 287 287 287 287 287 287 287 287 286 287 287 287 287 287 287 287 287 287 287 287 287 287 289 291 293 295 296 297 297 297 298 298 297 297 297 298 298 299 300 301 301 302 303 303
295 295 295 296 296 296 296 295 294 293 292 292 292 291 291 291 291 290 290 292 293 292 291 291 291 293 293 295 297 297 296 291 290 292 289 287 287 287 288 288 288 287 287 286 286 287 287 287 286 286 286 287 287 287 287 287 286 286 286 286 286 287 287 287 287 290 292 293 295 296 296 296 296 296 296 296 297 298 298 299 300 300 301 301 302
295 295 295 295 295 295 295 295 295 294 293 292 291 291 291 291 291 291 290 291 292 292 292 291 291 291 292 293 293 293 294 292 292 293 291 289 287 286 287 287 287 287 286 286 286 287 287 286 286 286 286 286 286 286 286 286 286 285 285 285 286 286 286 286 286 287 288 290 292 293 294 294 294 294 295 295 296 296 297 298 299 299 299 300 300
294 294 295 295 295 295 295 295 295 294 293 292 291 291 291 291 290 290 290 290 292 293 293 293 292 291 290 290 291 292 292 292 292 293 295 294 289 286 286 286 287 287 286 286 286 287 287 286 286 286 286 286 286 286 286 286 285 285 284 285 285 285 285 285 286 286 286 287 288 289 291 291 291 292 293 294 295 295 296 297 297 298 298 298 299
294 294 294 294 294 294 294 295 294 295 294 292 291 291 291 291 290 290 290 290 291 292 293 294 294 294 292 290 290 290 290 290 290 290 292 294 292 290 287 286 286 287 286 285 286 286 286 286 286 286 286 286 286 286 286 285 285 284 284 284 284 285 284 285 285 285 285 286 286 287 288 289 290 291 292 293 294 295 295 296 296 297 297 297 298
293 293 294 294 294 294 294 294 294 295 295 293 291 291 291 290 291 291 290 290 290 291 292 294 294 294 294 293 291 289 288 288 288 288 289 291 292 291 288 287 288 287 286 285 285 286 286 286 286 286 286 286 286 286 285 285 284 284 283 283 284 284 284 283 284 285 286 286 286 285 286 286 288 290 291 292 293 294 294 295 295 295 296 296 297
293 293 293 293 293 293 294 294 294 294 295 294 292 291 291 291 290 290 290 290 290 290 291 292 294 293 293 294 293 293 291 291 289 288 289 289 291 292 288 286 287 286 285 285 285 285 286 286 286 286 285 285 285 286 285 285 284 283 283 283 283 283 283 283 284 285 286 285 285 284 285 285 286 287 289 290 291 292 293 293 294 294 295 296 296
293 293 293 293 293 293 293 294 294 294 294 294 293 291 291 290 290 290 290 289 289 290 290 291 293 293 293 293 294 294 294 294 293 291 290 290 290 292 288 285 286 285 284 284 284 285 285 285 285 285 285 285 285 285 285 285 284 283 282 282 283 283 283 283 284 285 285 285 285 284 284 286 286 287 288 289 290 290 291 292 292 293 294 294 295
293 293 293 293 294 294 294 294 294 295 294 294 293 291 290 290 290 290 289 289 289 289 290 291 292 292 293 293 292 293 293 292 292 291 290 289 289 290 287 285 286 285 284 284 284 284 285 285 285 285 285 285 285 285 285 284 283 282 282 282 282 283 283 282 283 284 284 284 284 284 284 285 286 286 287 288 289 289 290 290 291 292 293 293 293
294 295 295 294 294 295 295 295 295 294 294 294 293 291 290 290 290 289 289 289 289 289 290 290 291 291 292 292 292 292 292 291 290 290 290 289 288 288 287 285 285 284 284 283 283 284 285 284 284 284 285 285 285 285 284 284 283 282 282 282 282 282 282 283 283 283 283 284 284 283 284 285 285 286 287 288 288 288 289 289 290 291 291 291 291
295 295 295 294 295 294 294 294 294 293 293 293 292 291 290 289 289 289 289 289 289 289 289 290 290 291 291 291 291 291 290 290 289 289 289 289 289 288 288 288 287 285 284 284 283 284 284 284 284 284 284 284 284 284 284 283 282 281 281 281 282 282 282 283 283 283 283 283 283 283 284 284 285 286 286 287 287 287 288 288 289 289 289 290 290
295 294 293 293 294 293 293 293 293 293 292 292 291 291 290 289 289 288 289 289 288 288 289 289 290 290 290 290 290 290 290 289 289 289 288 288 289 288 287 288 289 288 286 284 284 284 283 283 283 284 283 284 284 283 283 283 282 281 280 281 281 281 282 282 282 282 282 283 282 282 283 284 284 285 286 286 286 286 287 287 288 288 288 288 288
294 294 293 293 293 293 293 293 292 292 292 291 291 290 289 289 289 288 288 288 288 288 289 289 289 289 290 289 289 289 289 289 288 288 288 288 287 287 287 287 287 288 289 287 286 285 284 283 283 283 283 283 283 283 283 282 281 280 280 281 281 282 282 282 282 282 282 282 282 282 283 283 284 285 285 285 286 286 286 287 287 287 287 287 288
295 294 294 293 293 292 292 292 292 291 291 291 290 290 289 289 288 288 288 288 288 288 288 288 288 289 289 289 288 288 288 288 288 288 287 287 287 287 287 286 286 287 288 288 287 285 284 283 283 283 283 283 283 283 283 282 281 280 280 281 281 282 282 282 282 283 282 282 281 281 282 283 284 284 285 285 285 285 286 286 286 286 286 286 287
294 294 294 293 293 293 292 292 291 291 291 290 290 290 289 288 288 287 287 288 287 287 287 287 288 288 288 288 287 287 287 287 287 287 287 287 287 286 286 286 285 285 286 286 287 285 283 283 283 282 283 283 283 283 282 281 280 280 280 280 281 281 281 282 282 282 282 281 280 281 282 283 283 284 284 284 284 284 285 285 285 285 285 286 287
294 294 293 293 293 293 292 292 291 291 290 290 289 289 288 288 287 287 287 287 287 287 287 287 287 287 287 287 287 287 287 287 286 286 286 286 286 286 285 285 285 284 284 284 286 285 282 283 283 282 282 282 282 282 281 280 279 279 280 280 280 280 281 282 282 282 282 282 281 281 281 282 282 282 282 282 282 283 283 284 285 285 285 286 286
294 293 293 293 293 292 292 292 291 291 290 290 289 289 288 287 287 287 286 286 286 286 286 287 287 287 287 286 286 286 286 286 286 286 286 286 285 285 285 284 284 284 283 283 284 284 282 281 282 282 282 281 281 280 280 279 279 279 279 279 279 280 281 283 283 283 283 283 282 281 281 281 281 281 281 281 282 282 282 283 284 284 285 285 285
293 293 293 293 292 292 292 291 291 291 290 290 289 288 288 287 286 286 286 286 286 286 286 286 286 286 286 286 286 285 285 285 285 285 285 285 285 284 284 284 284 283 283 283 283 283 282 281 280 280 280 280 279 279 279 279 279 279 280 280 280 281 282 283 283 283 282 282 281 280 280 280 280 280 281 281 281 281 282 282 283 283 284 284 284
293 293 293 293 292 292 292 291 290 290 290 289 289 288 288 287 286 286 285 285 286 285 285 286 286 286 285 285 285 285 285 284 284 285 284 284 284 284 284 284 283 283 283 283 282 282 282 281 280 280 280 280 279 279 279 279 279 280 280 280 280 280 280 281 281 281 281 280 280 279 280 280 280 280 280 280 281 281 281 281 282 283 283 283 283
292 292 292 292 292 291 291 291 290 289 289 289 289 288 288 287 286 286 285 285 285 285 286 286 286 286 285 285 285 285 284 284 284 284 284 284 283 284 283 283 283 283 282 282 282 282 281 280 280 280 281 280 280 279 279 279 279 280 280 280 280 279 279 279 280 280 280 280 280 279 279 279 279 279 279 279 280 280 280 280 281 282 282 282 282
291 291 291 291 291 291 291 290 290 290 289 289 288 288 288 287 286 285 285 285 285 285 285 286 286 286 286 285 285 285 284 283 283 283 283 283 283 283 283 282 282 282 282 281 281 281 280 279 278 279 280 280 280 280 279 278 279 279 279 280 280 279 279 280 281 281 280 280 279 279 279 279 279 278 279 279 279 279 280 280 280 280 281 280 280
291 291 291 290 290 290 290 290 290 290 290 289 288 288 287 287 287 286 285 285 285 285 285 285 285 286 286 286 285 285 284 283 283 283 283 283 283 282 282 282 282 281 281 280 280 280 280 279 278 277 278 279 279 279 278 278 278 278 278 278 279 278 279 280 281 280 279 279 278 278 278 278 278 278 278 278 278 279 279 279 279 279 279 279 279
291 290 290 290 290 290 290 290 290 289 289 289 288 288 287 286 286 286 285 284 284 284 284 284 285 285 286 286 285 285 284 284 284 283 283 282 282 282 282 281 281 280 280 280 279 279 278 277 277 276 276 277 277 278 277 277 277 277 277 277 278 278 277 278 279 279 278 278 278 278 278 278 278 277 277 277 278 278 279 278 278 278 278 278 279
290 290 290 289 289 289 289 289 289 289 288 288 288 287 287 286 286 285 285 284 284 284 284 284 284 284 285 285 285 285 285 285 285 285 284 284 283 281 281 281 280 280 279 279 278 277 277 276 275 275 275 276 276 276 276 276 276 277 277 277 277 278 277 277 278 278 278 278 278 278 278 277 277 276 276 277 277 277 277 277 278 278 278 278 279
290 290 290 289 289 289 289 289 288 288 288 288 288 287 287 286 286 285 285 284 284 284 284 283 283 283 284 284 284 284 285 285 284 285 285 285 284 283 281 280 280 279 279 278 277 276 275 275 275 275 275 276 276 276 277 277 277 277 277 277 277 277 277 278 278 278 278 278 278 278 277 276 275 275 276 276 276 276 276 276 277 278 277 278 278
290 290 289 289 289 288 288 288 288 288 288 288 288 287 287 287 286 286 285 284 284 283 283 283 283 283 283 283 283 283 284 284 283 284 284 284 284 284 284 282 281 280 279 277 276 275 275 274 275 276 276 276 276 276 277 277 277 277 277 277 277 278 278 278 278 278 278 277 277 277 276 275 274 275 275 276 276 275 275 276 276 277 277 277 278
289 289 289 289 289 288 288 288 288 287 287 287 287 287 287 287 286 286 285 285 284 283 283 283 282 282 282 282 282 282 282 282 282 283 283 283 282 283 283 283 283 282 281 279 276 275 274 274 275 275 276 276 277 277 277 277 277 277 277 277 277 278 278 278 279 279 278 277 276 275 275 274 274 275 275 276 276 275 275 276 276 276 276 277 278
289 289 289 289 288 288 288 288 287 287 287 287 287 287 287 286 286 286 285 285 284 283 283 282 282 282 282 282 282 281 281 281 282 282 281 281 281 281 281 282 282 282 282 282 280 277 276 275 275 275 276 276 277 277 277 277 277 277 277 278 278 278 278 278 278 278 278 276 274 274 274 274 274 274 275 276 276 275 275 275 275 275 276 277 278
289 288 288 288 288 288 288 287 287 287 287 287 287 287 286 286 286 286 285 285 284 283 283 282 282 281 281 281 281 281 281 281 281 281 280 280 280 280 280 280 280 280 280 280 280 279 278 277 275 276 276 276 277 278 277 277 277 277 277 278 278 278 278 278 277 277 276 274 273 273 274 274 274 274 274 275 275 274 274 275 275 275 276 277 277
288 288 288 288 288 287 287 287 287 287 287 287 287 286 286 286 286 286 285 285 284 284 283 283 282 282 281 281 280 280 280 280 280 280 280 280 279 279 279 279 279 279 278 278 277 278 278 277 277 276 277 277 277 278 277 277 277 277 278 278 278 277 277 277 276 275 274 273 273 273 274 274 274 274 274 274 274 273 274 274 274 274 275 276 276
287 287 287 287 287 287 287 287 287 287 287 287 286 286 286 286 286 286 286 285 284 284 283 282 282 282 282 281 281 280 280 280 280 280 280 280 279 279 278 278 278 277 277 276 276 276 277 277 277 277 277 277 277 277 277 277 277 278 278 278 277 276 276 275 274 274 274 273 272 272 273 273 273 273 273 274 273 273 273 274 274 274 275 275 275
286 286 286 287 286 286 287 286 286 286 286 286 286 286 286 286 286 286 286 285 284 283 283 282 282 281 281 281 281 280 280 280 280 280 280 280 280 279 278 277 277 276 276 276 277 277 277 277 277 277 277 277 277 277 278 278 278 278 277 277 276 275 274 273 272 272 273 273 273 272 272 273 273 273 273 273 273 273 273 274 274 274 275 275 275
285 286 286 286 286 286 286 286 286 286 286 286 286 286 286 286 286 287 286 285 284 283 282 282 281 281 281 281 280 280 280 280 279 280 280 280 279 279 278 277 276 276 276 277 278 278 278 278 277 277 277 277 277 278 278 278 278 277 276 276 275 274 272 271 272 271 272 273 273 272 271 272 272 272 272 272 272 272 273 273 274 274 274 274 274
285 285 285 285 285 285 285 285 285 285 285 285 285 285 285 286 287 287 286 285 284 283 282 281 281 280 280 280 280 280 280 279 280 280 280 280 279 278 277 277 276 276 276 277 278 278 278 278 277 277 277 277 278 278 278 277 277 276 275 274 273 272 271 271 271 271 271 272 272 271 271 272 272 271 271 271 271 272 272 272 272 272 272 273 273
284 285 285 284 284 285 285 285 285 285 285 285 285 285 285 286 287 287 287 285 283 282 281 280 280 280 279 279 280 280 280 279 280 280 281 280 279 278 278 277 276 276 277 277 277 277 278 277 277 277 277 277 278 277 276 276 275 274 273 273 272 271 271 270 270 270 271 271 272 271 271 271 271 271 270 270 270 271 272 271 271 271 271 272 272
Wind_Speed
31 31 30 30 29 27 26 25 23 22 21 20 18 17 16 15 13 12 11 10 10 9 9 8 7 5 4 3 3 2 2 3 4 4 4 3 2 0 1 3 5 7 8 8 9 11 11 11 10 10 10 11 11 11 11 10 11 12 12 12 11 12 12 12 13 13 13 12 12 12 13 13 13 14 14 13 12 12 12 11 9 9 10 11 12
32 31 31 31 29 27 26 25 25 24 22 21 19 18 16 15 14 13 12 11 11 10 9 9 7 6 5 4 3 2 3 3 4 4 3 2 1 2 3 4 6 7 9 10 10 11 12 12 11 10 10 11 11 11 11 10 10 11 11 11 11 11 12 12 13 13 13 13 12 13 13 13 13 14 14 14 14 13 14 14 13 12 10 9 10
32 32 32 31 30 28 27 27 26 25 23 21 20 19 17 16 15 14 13 12 12 11 10 9 7 6 5 3 3 2 3 3 3 3 2 1 2 4 6 7 7 8 10 11 11 12 13 14 13 13 12 11 11 11 11 10 9 10 10 9 10 11 12 12 12 12 13 13 13 13 13 13 13 14 14 14 14 14 14 15 14 14 13 11 10
33 33 32 31 31 30 28 28 27 25 24 23 22 21 19 18 17 16 15 14 13 12 11 9 7 6 5 3 3 2 2 3 3 1 0 2 4 6 8 9 10 10 11 12 12 12 12 12 13 14 14 13 12 11 11 10 10 10 9 8 9 9 10 11 12 12 13 13 13 13 12 12 13 13 13 13 13 14 14 14 14 14 14 13 12
35 34 33 32 31 30 30 29 27 26 25 24 23 22 21 20 19 18 17 16 15 13 12 10 8 6 5 4 2 2 2 1 1 1 2 4 6 8 10 11 11 11 11 12 12 11 11 11 12 13 15 14 13 11 10 11 10 10 9 8 8 9 10 10 11 11 12 12 13 13 12 12 13 13 12 12 13 13 13 13 13 14 13 13 12
36 35 34 33 32 31 31 30 29 28 27 26 25 24 22 21 20 19 18 17 15 13 12 11 9 7 5 3 2 2 1 1 2 3 5 7 9 10 11 11 11 11 11 11 11 11 10 10 11 12 14 14 13 11 10 10 10 10 10 9 8 9 9 9 10 11 12 12 12 12 13 13 13 13 13 12 12 12 12 12 11 11 12 12 12
38 37 36 34 33 33 32 31 30 30 29 27 27 25 23 22 21 20 19 18 16 14 13 11 9 6 4 3 2 2 3 4 5 6 7 9 11 11 11 11 11 11 11 11 11 10 10 9 9 10 11 12 11 11 11 12 11 11 11 10 9 9 9 10 11 12 12 12 13 13 13 13 13 13 13 13 13 12 13 12 11 11 11 12 12
39 38 37 36 35 34 33 33 32 31 30 29 28 26 24 23 22 20 19 19 17 15 13 11 9 7 5 3 3 4 6 7 7 8 9 11 12 12 12 12 11 11 11 11 10 9 8 8 8 9 10 10 9 9 10 12 12 12 12 11 11 10 11 11 12 12 13 13 13 13 13 13 13 13 13 13 13 13 13 13 13 13 12 12 12
40 39 38 37 36 35 34 34 34 33 32 30 29 27 26 24 23 22 20 19 18 16 14 11 9 7 5 4 5 7 8 9 9 9 11 13 13 13 12 12 11 11 10 10 9 8 7 7 7 8 9 9 9 8 9 11 13 13 12 12 12 12 12 12 12 13 14 14 14 14 14 14 14 13 13 13 13 13 13 14 14 14 13 13 13
42 41 39 38 37 36 35 35 35 34 33 32 30 29 27 26 25 23 22 20 19 17 15 12 9 7 6 7 8 9 10 11 11 11 13 14 14 12 12 11 10 10 9 9 8 8 7 7 7 7 8 8 8 7 8 10 11 14 13 12 12 12 12 13 13 14 14 14 14 14 14 14 14 14 13 13 13 13 13 13 14 14 14 14 14
43 42 41 40 38 37 37 37 37 36 34 33 32 31 29 28 26 25 23 21 19 17 15 12 10 8 8 10 10 12 13 13 13 13 14 14 13 12 11 10 9 8 8 8 7 8 8 7 7 7 7 7 7 8 8 10 12 14 14 12 12 12 12 13 14 14 14 14 14 14 14 13 14 14 13 14 14 14 14 14 14 14 14 14 15
45 44 42 41 40 39 38 38 37 37 36 35 34 34 32 30 28 26 25 22 20 18 15 14 13 11 12 14 14 14 15 14 14 14 13 13 12 11 10 9 8 8 7 6 7 7 8 7 7 8 8 8 8 9 10 10 14 15 15 13 12 13 13 13 14 14 14 14 13 13 13 13 13 13 13 14 14 14 14 15 15 14 14 14 15
46 45 44 43 42 40 39 38 38 38 38 37 36 34 32 31 29 27 25 24 22 19 17 17 15 13 12 14 15 16 16 15 14 12 11 11 11 11 10 9 8 7 7 6 6 6 5 6 7 8 9 9 10 12 13 13 16 16 15 15 14 13 13 13 13 13 13 13 13 12 12 13 13 13 13 14 15 15 15 15 15 15 15 15 15
47 46 46 45 43 41 40 39 39 39 38 36 35 34 33 32 30 28 26 24 22 21 21 18 12 12 12 10 8 10 12 12 11 10 10 11 12 11 10 9 8 8 6 5 4 4 4 5 7 8 9 11 13 15 16 16 17 16 15 15 15 14 13 13 12 12 12 12 12 12 12 12 13 13 14 14 15 15 15 16 16 16 16 16 16
48 47 46 45 44 42 40 39 39 40 39 38 37 36 35 34 32 30 28 24 21 21 24 18 13 14 13 6 2 4 4 5 6 7 9 12 12 10 9 8 8 7 5 4 3 3 4 6 7 8 10 12 14 15 16 16 15 13 13 14 13 13 12 12 12 12 12 12 12 12 12 12 13 13 14 14 14 15 15 16 16 16 17 17 17
48 47 46 45 44 43 42 41 41 41 41 40 40 39 38 36 34 32 30 26 21 21 24 21 17 15 8 2 1 2 2 4 6 7 10 11 10 8 6 5 6 5 3 3 4 5 6 7 8 9 10 12 14 14 13 12 12 12 12 13 13 12 12 11 12 12 12 12 12 12 12 13 13 13 13 13 14 14 15 15 15 15 16 17 17
48 47 47 46 45 45 43 43 43 42 42 42 42 41 40 38 37 35 33 30 25 23 23 22 21 17 9 4 2 1 1 3 5 5 10 12 9 8 5 2 2 3 2 2 4 6 7 8 10 10 10 12 13 13 11 10 11 12 13 14 14 13 11 11 10 11 12 12 12 12 12 13 14 14 14 14 14 15 15 15 15 16 16 16 16
48 48 47 46 46 45 44 44 44 44 43 43 42 42 41 39 38 37 35 31 27 24 24 23 22 19 14 10 6 4 4 6 4 1 6 10 9 9 7 5 3 2 3 2 4 7 8 10 12 11 10 11 12 11 10 10 11 13 14 15 14 13 12 11 10 10 11 12 12 12 12 13 14 14 14 15 16 16 16 16 16 16 16 16 16
47 47 46 46 46 45 44 44 44 44 43 43 43 42 41 40 39 38 36 32 28 26 26 26 22 18 17 14 10 8 9 10 5 2 3 5 8 9 8 7 4 1 3 3 5 9 10 12 12 10 10 11 11 10 8 8 10 13 14 15 14 14 13 13 12 12 12 12 12 12 12 13 14 14 15 16 16 17 17 17 16 17 17 17 17
46 46 46 46 45 45 44 44 43 43 43 44 44 43 42 41 40 39 38 35 30 27 28 28 25 20 18 15 11 11 12 12 9 6 3 1 4 6 7 7 4 4 4 3 7 11 10 12 12 10 11 11 11 9 6 6 9 12 14 14 14 14 13 13 13 12 13 12 11 12 12 13 14 15 16 16 17 17 17 16 17 17 17 17 17
45 45 46 46 46 45 45 44 43 43 43 43 43 43 42 42 42 41 40 38 34 29 28 29 28 24 21 18 14 12 11 10 10 9 3 2 3 3 5 6 4 7 6 4 8 12 11 12 12 11 12 11 11 8 5 4 6 11 13 13 13 13 12 12 11 10 11 11 11 12 12 13 14 15 16 17 17 17 17 17 17 18 17 18 18
44 45 45 46 46 45 45 44 44 43 43 43 44 44 44 43 43 42 41 40 36 31 29 29 28 26 24 23 20 16 10 6 9 10 5 2 1 1 6 7 5 7 6 4 9 12 12 14 13 12 13 12 11 8 5 2 4 9 12 12 12 12 10 9 9 9 9 10 11 12 14 14 15 15 16 16 16 16 17 17 17 18 18 18 18
42 43 44 45 45 45 44 44 44 44 44 44 45 45 45 45 44 43 42 41 38 34 31 29 29 27 25 25 23 20 16 11 15 17 11 5 3 1 5 8 5 5 7 6 9 12 13 14 14 13 13 13 12 9 6 3 4 10 12 12 13 12 9 8 7 8 9 10 11 13 14 15 15 15 15 15 16 16 17 17 17 17 17 17 18
40 41 43 44 45 45 44 44 45 45 45 45 45 45 45 45 45 44 43 42 39 36 33 31 30 29 27 25 23 22 21 16 16 20 18 14 9 3 4 7 4 4 8 6 8 13 14 14 13 13 13 13 13 10 7 4 5 11 12 12 13 11 9 8 7 8 9 9 11 13 14 14 14 14 15 15 16 16 16 17 17 17 17 17 18
41 43 45 45 45 46 47 47 47 47 47 46 46 46 46 46 46 45 45 44 41 38 36 34 32 31 29 27 25 23 22 17 14 17 19 18 13 5 4 6 3 3 6 5 7 12 14 14 13 13 14 14 14 12 9 5 6 12 13 12 12 11 9 8 7 8 9 10 11 12 13 13 13 14 14 15 15 15 16 16 16 17 17 17 18
45 47 48 48 48 49 50 49 49 49 48 48 47 47 47 47 47 46 45 44 42 40 38 35 33 31 30 29 27 25 23 21 18 17 19 19 16 12 8 4 2 3 3 5 10 10 11 14 14 13 14 16 16 14 11 7 8 12 12 12 11 10 9 8 8 9 9 11 12 13 13 13 14 14 14 15 15 16 16 16 17 17 17 18 18
45 46 47 48 49 49 49 49 48 48 48 48 47 47 47 47 46 46 46 45 43 41 39 37 35 34 32 30 29 27 25 24 22 19 20 19 18 17 13 6 2 2 1 4 9 10 11 13 14 15 16 17 18 15 12 9 10 13 13 13 11 10 10 9 10 10 11 12 13 13 13 13 14 14 14 15 16 16 16 17 17 17 17 18 18
41 42 43 45 47 48 48 48 48 47 46 46 46 47 47 47 47 47 46 45 44 43 41 40 37 36 34 32 31 29 28 27 24 21 21 20 17 16 17 12 5 3 2 3 5 9 14 15 14 18 19 18 18 16 12 9 12 14 14 13 11 11 11 11 11 11 12 13 13 14 13 12 13 14 14 15 15 15 16 16 16 17 17 17 18
38 38 40 42 44 46 47 47 47 47 47 46 46 46 47 47 48 48 48 47 46 45 44 42 40 38 36 34 33 31 30 29 27 25 23 23 21 18 18 17 12 6 3 4 5 7 15 19 17 18 22 20 17 16 13 11 13 14 14 12 11 11 11 12 12 12 13 14 14 14 13 13 13 13 13 14 15 15 16 16 17 17 17 17 17
37 38 39 40 42 44 45 46 46 47 47 47 47 47 47 48 48 49 49 48 47 46 45 44 42 40 38 36 34 33 32 31 29 28 27 25 25 23 20 19 18 14 7 4 5 8 16 21 18 17 20 21 18 16 14 13 13 13 12 10 10 11 11 11 12 13 14 14 14 13 12 12 11 12 13 14 14 15 15 16 17 17 17 17 18
37 38 38 40 41 43 45 46 46 46 47 47 47 48 48 48 48 48 48 48 48 48 46 45 44 42 40 38 37 36 35 34 32 31 30 29 27 25 23 22 21 21 16 8 3 7 16 21 19 17 18 19 18 16 15 14 13 12 9 8 9 9 10 11 12 13 13 14 13 12 11 11 12 12 13 14 15 16 17 18 18 18 18 18 19
37 38 39 40 41 43 44 46 46 46 47 47 47 47 48 49 49 49 48 48 48 48 47 45 44 43 42 40 40 39 37 36 35 34 33 32 30 27 25 24 23 22 21 14 5 6 16 21 19 17 17 17 17 16 16 14 12 9 7 8 9 9 10 11 12 12 13 13 13 14 14 14 14 15 15 16 17 18 19 20 19 20 20 20 21
38 38 39 40 41 42 44 45 47 47 48 48 48 48 48 49 49 48 48 49 48 48 48 46 45 44 44 42 41 40 39 38 38 37 36 34 32 30 27 26 26 24 23 20 10 7 13 18 16 15 16 16 15 15 13 12 11 7 6 8 9 10 12 12 12 12 12 13 14 15 15 15 16 17 17 18 19 20 21 21 21 21 21 21 22
38 39 40 40 40 41 43 45 47 48 48 49 49 49 50 50 49 48 48 49 49 48 48 48 48 46 45 44 43 42 41 40 40 39 39 38 35 33 31 29 28 27 25 23 17 10 11 14 15 13 13 12 12 11 11 12 10 8 8 9 10 11 12 11 11 12 12 13 13 13 13 14 16 17 18 18 20 21 22 22 22 22 22 23 23
38 39 40 41 41 42 43 44 45 46 48 49 49 50 51 52 51 50 49 51 51 51 50 51 50 48 46 45 44 44 42 41 41 41 40 39 37 35 33 31 30 29 26 25 21 15 12 12 13 12 11 11 10 9 10 11 9 9 10 10 11 12 11 11 12 12 13 13 13 13 14 16 19 20 21 20 22 23 24 23 23 23 23 24 24
37 38 39 40 41 42 43 44 44 45 46 48 49 51 52 51 51 51 51 52 52 52 54 54 52 51 50 48 47 46 45 44 43 42 41 39 38 36 34 33 31 29 28 26 24 20 15 11 10 11 11 11 11 10 11 10 9 9 9 10 11 12 12 12 13 14 14 13 13 13 16 18 20 22 22 22 23 24 24 24 24 23 24 24 25
37 38 39 39 40 42 44 45 45 46 47 48 49 51 52 52 51 51 51 52 53 53 53 55 55 55 54 53 51 49 48 47 45 44 43 40 38 37 35 34 32 30 28 27 25 22 17 13 11 11 12 12 12 11 10 9 9 9 9 11 12 13 14 14 14 14 13 13 13 14 16 18 19 20 20 20 22 23 23 24 24 24 24 25 27
37 38 39 40 41 43 44 44 45 47 48 48 48 50 51 52 52 51 50 51 54 53 53 54 56 57 57 55 54 53 52 51 49 47 45 42 40 39 37 35 33 31 29 28 26 23 19 16 13 11 12 12 13 12 8 7 9 10 11 13 14 14 14 14 14 13 12 11 10 11 13 15 16 18 18 19 21 23 23 23 23 24 25 27 28
36 37 38 39 41 42 43 44 44 45 45 47 49 49 49 50 50 50 50 51 53 53 52 54 55 57 58 57 56 56 56 55 53 50 47 45 43 41 39 37 35 33 31 29 26 23 20 16 13 12 11 10 11 11 6 4 5 7 8 10 12 12 10 10 12 12 9 7 6 7 11 13 16 18 19 19 20 21 22 23 23 25 26 28 28
34 35 37 38 39 41 42 43 43 43 43 46 48 49 50 49 48 47 47 49 53 53 52 52 53 54 56 56 56 57 57 56 54 52 50 48 46 43 40 38 36 35 33 30 27 24 20 16 13 11 9 8 8 8 6 3 3 4 4 5 8 10 7 9 11 10 8 7 6 7 10 14 17 18 18 19 20 20 21 22 24 26 27 27 26
32 34 35 36 37 39 40 41 41 42 43 46 48 49 49 49 48 48 47 47 50 51 51 50 51 52 53 54 54 55 56 54 52 51 49 48 47 46 44 41 39 37 34 32 29 26 22 17 13 11 9 8 8 8 7 7 7 5 4 6 9 9 8 10 12 11 8 7 7 10 15 18 17 16 17 19 21 21 21 22 25 26 27 26 25
31 33 33 35 37 38 39 39 40 41 43 46 47 48 50 50 49 48 47 46 46 45 46 48 49 50 51 52 52 52 52 52 50 49 48 47 46 45 44 43 42 39 37 34 32 30 26 21 16 14 11 10 11 11 10 10 9 8 7 8 9 9 8 9 11 11 9 9 9 14 18 20 16 13 16 20 22 21 20 23 25 26 27 26 25
30 31 33 35 37 37 38 38 40 42 44 46 46 47 50 51 50 48 47 47 46 44 43 44 47 49 50 50 48 48 49 49 48 47 46 46 45 42 40 39 39 38 38 36 35 34 31 26 22 18 14 13 14 14 13 12 10 10 10 10 10 9 7 7 8 9 10 11 15 17 16 18 17 14 18 23 24 22 22 25 27 26 25 24 24
28 29 32 34 36 36 37 38 40 42 44 45 46 46 49 51 51 49 46 44 45 45 44 42 42 44 46 47 46 46 48 48 47 45 44 43 42 40 37 36 37 36 34 33 33 34 35 32 27 22 18 15 15 16 16 14 12 11 11 11 11 9 8 9 10 10 11 16 19 15 13 16 17 17 21 25 25 26 26 28 28 24 21 21 23
27 28 30 32 34 35 36 38 40 42 43 44 45 46 48 49 51 49 46 44 43 45 46 44 42 41 42 44 44 44 45 46 45 45 43 40 39 38 36 34 35 34 32 30 28 28 32 33 30 25 22 18 17 18 18 15 13 12 12 12 11 10 9 10 11 13 16 19 17 12 9 12 16 20 24 26 27 28 30 30 29 25 21 22 23
28 28 29 31 33 34 35 37 39 40 42 44 44 45 47 48 50 50 48 45 44 44 46 47 46 44 44 45 45 44 44 45 45 45 43 40 38 36 35 34 34 33 32 31 27 25 28 29 28 26 23 19 17 17 17 15 14 13 12 11 10 9 8 10 13 17 19 16 12 9 7 10 18 22 24 26 28 29 31 32 31 27 23 22 22
29 29 29 30 31 33 35 36 37 39 41 41 41 43 45 47 48 48 47 46 44 43 44 46 48 48 48 48 48 47 46 46 47 46 45 43 40 36 34 35 35 34 32 32 30 29 28 27 25 21 19 17 16 15 14 14 13 12 12 11 11 10 11 14 17 18 15 12 12 9 5 11 19 19 21 27 31 31 31 32 30 27 24 24 24
30 29 29 30 30 32 33 35 36 38 39 39 40 42 44 45 45 45 45 46 44 42 42 43 45 47 48 50 51 50 49 49 48 46 46 45 41 38 36 35 35 34 33 30 28 28 27 25 22 18 16 16 16 14 13 12 12 12 13 14 13 12 11 12 13 12 12 14 15 9 5 12 19 19 21 28 31 30 31 30 28 26 26 31 34
30 29 29 30 30 31 32 33 35 37 37 37 38 41 42 43 42 42 42 42 42 40 40 41 44 45 47 49 50 50 50 49 46 44 45 46 42 38 37 35 33 32 31 27 24 23 23 23 21 19 18 17 15 14 14 13 12 13 15 15 13 11 8 6 4 6 11 15 12 7 5 12 19 22 26 30 29 28 29 25 21 26 34 39 40
30 30 29 30 30 30 30 32 34 36 37 36 36 38 40 41 41 41 40 39 39 38 37 38 41 43 45 46 49 51 51 49 46 42 42 45 44 40 38 36 34 33 32 29 25 23 22 22 21 20 19 17 16 16 16 15 13 14 15 14 11 9 8 5 3 4 9 9 6 6 9 15 20 23 26 30 25 18 18 18 18 28 40 42 39
31 30 29 29 30 30 30 32 33 34 36 35 34 35 36 37 40 41 39 37 36 36 34 34 36 40 42 44 47 50 51 50 47 42 39 42 44 43 40 39 38 37 37 35 31 27 25 23 22 21 19 18 19 20 19 18 18 17 15 13 11 9 8 6 4 2 4 2 1 6 12 14 17 19 18 19 15 8 10 20 27 32 34 36 38
Wind_Direction
210 208 207 207 206 204 201 199 197 195 195 194 194 197 195 189 185 183 182 182 181 181 178 177 179 182 191 208 234 270 299 317 324 327 329 331 335 295 188 174 168 158 148 128 101 90 87 85 82 78 75 74 74 71 71 72 62 55 58 61 61 59 56 56 54 54 55 54 53 49 46 44 42 41 38 35 33 28 24 18 10 358 341 332 329
212 209 208 208 206 204 202 200 198 196 197 196 195 196 196 190 185 183 182 182 181 178 176 177 180 185 195 213 239 275 306 323 328 331 337 347 48 132 146 150 154 153 148 133 108 94 89 82 81 79 74 73 74 72 69 70 62 57 62 65 64 59 54 52 52 51 52 53 53 50 48 46 44 42 40 39 36 31 28 28 27 23 11 357 347
215 212 210 209 207 204 202 200 200 198 198 198 197 195 194 191 186 184 183 181 179 177 177 180 184 191 201 222 248 288 315 326 329 333 345 38 120 136 140 138 139 140 139 129 107 94 88 80 79 76 72 72 73 72 69 68 64 62 66 68 62 55 52 50 49 48 49 50 51 51 50 47 45 41 39 37 34 30 28 27 26 25 23 18 6
216 215 212 211 209 206 204 202 201 200 199 199 198 195 192 190 187 184 184 180 179 178 176 180 188 194 202 224 252 287 310 320 322 328 62 130 137 139 141 138 134 132 131 126 112 100 97 91 88 81 72 71 73 72 69 67 66 67 69 67 59 53 50 49 49 49 49 49 50 51 50 47 43 39 38 35 32 30 28 27 26 24 23 21 16
216 216 215 213 211 209 207 204 203 202 200 199 199 198 193 190 187 185 183 180 179 178 176 180 189 196 204 222 243 267 292 299 275 171 146 143 144 143 142 139 135 133 130 129 124 116 114 109 107 99 82 72 73 75 69 65 64 66 69 66 59 53 50 49 50 50 49 49 49 50 48 44 42 39 37 34 31 29 28 26 24 23 21 19 17
216 216 215 214 213 211 208 206 204 202 202 200 200 199 194 190 188 185 182 180 180 178 178 183 189 193 198 213 226 220 199 180 167 151 149 146 144 144 141 139 136 135 133 133 134 129 123 118 120 118 101 83 75 73 67 64 64 64 65 66 59 53 52 52 52 49 47 48 48 48 46 43 42 40 39 36 34 32 28 24 18 16 14 12 10
216 216 215 214 213 211 210 207 205 203 202 202 201 198 193 190 188 185 182 181 181 178 181 186 189 191 193 199 199 172 159 155 149 142 145 145 143 141 137 135 135 135 137 137 138 133 130 127 126 132 127 109 91 80 71 64 62 62 62 64 62 57 56 54 51 47 45 48 47 46 44 42 42 40 40 37 34 31 27 23 18 13 10 7 5
216 216 215 214 213 212 210 208 206 205 203 202 201 197 192 190 189 187 186 183 183 182 183 187 187 185 184 181 166 157 152 146 141 134 137 142 140 137 133 132 134 136 139 140 139 134 133 133 131 137 142 135 120 108 92 72 61 62 62 62 62 59 55 52 49 47 46 47 46 44 42 41 40 38 37 35 32 28 25 23 20 16 13 9 6
216 216 216 215 213 212 211 208 207 205 203 202 200 197 193 191 189 188 189 188 188 186 182 182 183 179 172 163 152 149 148 143 135 128 132 137 135 132 131 129 131 134 136 137 137 135 133 133 135 140 144 142 135 130 120 94 71 64 65 63 62 59 54 53 51 48 47 46 44 42 40 39 37 35 33 31 28 25 22 19 17 14 12 9 5
217 216 216 215 214 212 211 209 207 205 204 202 200 197 194 193 191 189 190 190 191 189 182 178 174 169 155 145 146 146 145 143 136 132 135 136 134 131 129 128 128 129 129 130 130 131 132 131 132 139 143 142 137 133 133 119 91 72 68 66 64 63 58 54 53 50 48 46 42 40 38 36 34 32 30 27 24 21 17 13 11 8 7 5 2
217 217 216 215 214 212 211 209 207 205 203 202 200 198 195 194 193 191 190 189 192 190 180 171 163 154 144 136 138 141 141 141 139 138 141 141 137 134 131 129 128 125 123 123 125 128 127 127 131 135 137 138 137 133 132 128 111 88 74 71 69 66 61 54 52 49 46 43 41 38 35 32 30 27 25 23 20 16 13 9 6 5 4 2 360
218 218 217 216 214 212 211 208 207 206 204 203 201 200 197 194 193 192 191 188 189 186 178 170 150 128 130 134 134 135 135 138 141 142 143 144 143 141 139 135 130 124 120 119 125 132 126 120 124 128 128 130 129 124 123 124 117 97 78 74 71 65 59 51 47 46 42 40 38 34 31 28 26 24 21 18 16 12 9 6 4 3 1 1 359
218 217 217 216 214 212 210 207 207 207 207 207 204 202 199 196 194 193 193 190 185 182 177 169 146 119 121 129 129 131 131 131 137 140 141 146 148 148 147 144 135 121 115 119 128 134 128 117 118 123 123 123 119 114 113 115 113 102 84 74 67 61 55 49 46 43 39 37 34 30 27 24 22 19 17 15 12 8 5 2 0 359 357 355 354
218 217 216 216 214 212 210 209 209 208 208 207 205 203 199 197 195 191 192 190 187 183 175 171 161 147 138 129 126 134 137 134 133 134 136 140 143 141 139 141 136 119 108 115 130 134 131 125 122 125 124 120 116 112 110 107 104 103 97 84 72 62 54 48 44 39 36 34 29 24 21 19 18 18 16 14 11 7 5 2 359 357 354 352 349
217 217 215 215 214 213 212 211 210 209 207 205 205 204 200 198 196 193 190 188 188 186 180 179 176 161 146 132 148 154 167 178 171 164 155 148 146 141 130 126 126 116 103 97 116 136 132 132 132 132 129 123 119 116 111 103 93 92 95 88 78 69 59 46 37 33 33 30 25 21 19 18 17 17 16 13 10 7 5 2 359 356 353 351 348
217 216 215 216 216 215 214 212 211 210 208 206 205 204 202 200 198 195 191 187 186 186 188 189 178 164 147 99 122 156 220 204 186 194 187 173 167 163 146 125 119 115 100 62 87 130 133 135 141 138 133 126 123 120 110 97 84 77 73 70 67 65 62 49 34 29 28 25 22 20 19 17 15 13 11 9 6 3 1 358 356 353 351 348 345
217 217 218 218 218 217 216 214 212 210 209 209 207 206 204 202 199 197 195 193 189 185 191 194 186 180 173 142 135 198 238 157 156 194 202 195 195 196 191 186 140 109 106 57 83 128 134 138 144 140 135 131 129 124 110 91 74 62 55 52 50 49 52 48 37 29 24 21 22 20 16 12 11 9 6 5 3 1 359 356 354 352 348 345 342
217 218 218 218 218 217 216 215 212 210 209 210 209 207 205 203 201 199 199 199 194 187 189 192 192 195 195 189 191 201 161 145 146 191 204 208 219 225 228 226 219 108 120 105 111 136 137 140 146 142 138 136 133 124 107 85 63 49 41 39 38 35 35 35 34 30 23 20 19 15 11 7 6 5 4 3 2 360 359 357 354 351 348 344 341
217 217 217 217 217 217 216 215 214 212 210 209 209 209 208 206 204 202 201 200 198 194 192 190 190 198 203 202 201 192 168 160 168 160 172 214 222 223 224 219 226 174 144 133 135 143 141 145 148 146 144 140 135 127 107 77 52 39 32 30 29 27 26 26 29 29 26 23 19 13 9 6 5 4 3 3 1 360 358 355 352 349 347 344 340
216 216 216 217 217 216 216 215 214 213 211 211 211 211 210 208 205 204 203 202 202 203 200 193 189 192 194 194 194 187 178 175 184 178 153 180 195 206 212 210 217 178 148 128 149 151 147 152 154 152 151 146 141 133 114 78 44 27 23 23 22 21 23 24 22 20 21 23 21 17 12 10 8 7 5 3 1 359 356 352 349 346 343 342 339
215 216 215 216 217 217 216 215 215 214 213 213 214 213 212 210 207 205 205 204 205 209 209 203 198 196 191 186 181 176 177 182 185 180 164 157 174 187 186 184 189 175 156 122 153 159 156 160 162 160 157 154 153 148 130 93 35 17 14 15 16 18 22 22 15 9 10 11 13 13 11 11 9 6 4 1 359 356 352 348 346 344 341 339 337
214 215 215 216 216 216 216 216 216 217 215 215 214 213 213 213 211 208 207 207 206 208 212 211 206 203 199 192 182 172 169 176 185 183 169 149 180 169 174 173 168 178 177 145 156 163 163 166 166 167 167 164 165 167 163 145 7 3 6 6 8 15 20 17 10 3 2 3 6 10 11 11 8 4 1 358 355 352 349 346 343 341 339 337 335
214 214 215 215 215 216 217 217 218 218 217 216 215 215 215 214 213 211 209 208 208 208 210 211 208 205 203 201 197 192 191 195 199 194 182 171 173 141 178 181 173 183 179 152 160 168 167 170 172 174 176 176 177 181 186 211 330 348 355 359 2 10 17 17 9 359 358 1 4 9 10 9 6 3 0 355 352 349 346 344 342 340 337 335 333
214 214 214 214 214 214 215 216 217 218 218 218 218 217 217 216 214 212 211 209 208 208 208 209 207 205 203 204 206 206 206 209 210 203 199 197 191 157 146 169 175 189 178 158 166 175 173 174 179 183 186 187 190 191 197 225 309 337 347 354 359 6 15 21 14 356 353 355 358 4 5 3 1 360 357 353 350 348 345 343 341 339 337 334 332
213 215 215 215 214 215 215 216 217 219 219 218 218 217 217 216 215 213 212 211 209 208 209 208 207 207 206 205 205 208 209 212 214 208 205 199 191 171 139 156 146 151 175 179 169 174 179 182 185 193 197 198 199 201 208 234 304 332 343 350 356 5 14 22 19 359 355 357 357 1 1 358 356 355 354 352 350 348 345 344 341 338 336 334 331
214 216 217 216 216 217 218 217 218 218 218 217 217 217 216 216 216 215 213 212 211 209 210 210 208 208 208 206 206 207 208 210 212 208 203 197 191 182 157 138 112 122 163 184 171 173 186 189 193 200 204 206 206 209 216 242 305 326 338 344 351 3 9 18 24 13 10 12 11 7 0 357 355 353 352 352 350 347 345 343 340 337 335 333 331
218 218 217 216 216 217 216 217 217 216 216 216 216 216 216 215 215 215 214 213 212 211 210 210 209 208 208 208 208 206 206 209 211 210 208 205 204 196 178 157 130 148 157 181 187 196 193 190 200 206 208 210 211 216 224 250 307 326 332 338 349 2 6 15 22 18 17 18 16 11 359 353 354 353 352 351 349 346 344 341 337 335 333 331 330
221 219 217 216 216 215 215 217 217 217 217 216 216 215 215 215 215 215 215 213 212 211 211 210 210 209 209 208 208 207 206 208 210 210 209 208 210 206 195 187 177 160 157 178 208 216 203 195 200 207 211 213 215 224 236 266 312 327 328 334 348 358 5 16 18 16 16 15 15 12 1 353 354 353 351 348 345 341 339 336 334 332 331 330 330
225 222 220 219 217 216 216 216 216 217 217 216 216 216 215 215 215 215 214 213 212 211 211 210 210 209 209 208 207 206 206 207 208 208 207 207 207 207 206 203 196 180 160 184 197 202 202 201 200 205 210 214 221 231 246 279 310 320 324 334 346 354 5 15 15 14 15 14 13 11 2 354 353 350 347 342 338 337 335 334 333 331 330 330 330
229 227 224 222 220 218 217 217 217 217 217 217 217 216 216 216 215 215 215 213 211 211 211 210 209 208 208 207 207 207 207 207 207 207 207 208 208 207 209 209 204 199 189 176 186 185 191 197 203 209 211 216 224 234 250 278 301 311 319 334 346 356 6 9 10 13 14 14 15 10 357 350 349 344 340 338 335 335 334 333 332 331 331 331 330
232 230 227 225 223 220 218 218 218 217 217 217 216 216 215 215 215 214 214 212 211 210 209 209 209 208 207 206 206 206 207 207 207 207 207 207 208 208 207 208 209 210 202 181 171 187 187 192 202 211 215 218 226 241 259 277 295 303 314 337 351 2 10 10 12 16 15 16 18 12 358 350 349 345 341 339 339 337 336 334 333 332 332 332 331
234 232 230 228 225 222 220 218 218 217 217 216 216 215 215 215 214 213 212 211 211 210 209 208 208 208 207 206 205 205 206 205 206 206 206 207 207 206 206 207 209 212 206 193 168 165 183 190 198 207 213 219 232 249 264 277 289 296 318 350 5 11 11 12 16 16 13 11 13 15 10 1 354 351 348 345 344 343 340 336 332 332 333 332 331
235 233 232 230 228 225 222 220 219 218 217 216 215 215 214 214 214 213 212 210 209 209 208 207 207 207 207 206 205 205 205 205 205 205 205 205 205 203 204 206 208 211 207 199 183 149 173 189 197 205 214 227 241 251 262 280 292 306 345 7 17 14 7 7 9 7 5 5 10 13 9 0 355 353 351 348 346 343 339 336 333 332 330 329 329
236 234 232 230 229 227 225 223 220 219 218 217 216 215 214 214 212 211 211 209 207 207 207 206 206 206 205 205 204 204 204 205 205 204 204 204 203 201 201 203 206 210 209 205 196 173 167 186 202 215 227 239 247 252 270 289 303 327 357 14 17 10 5 4 4 5 6 9 13 10 360 356 357 355 351 347 343 341 339 336 333 330 326 326 327
239 236 233 230 229 227 225 224 222 220 219 217 216 216 215 214 212 211 210 209 207 205 205 206 205 203 203 203 203 203 203 203 204 205 205 204 202 201 201 202 205 207 209 209 205 195 179 187 213 234 246 253 254 266 288 298 312 337 355 8 10 8 7 6 4 5 7 11 14 8 1 0 0 358 355 349 344 342 340 335 331 329 328 328 327
242 239 236 232 229 227 225 223 222 220 220 218 217 216 216 215 214 213 212 210 208 207 207 206 205 203 202 202 202 203 202 201 202 203 203 202 203 202 201 202 204 205 208 208 209 208 197 193 216 240 254 265 272 286 300 304 319 343 356 0 360 0 2 3 2 2 4 9 11 5 2 1 357 356 352 345 341 341 341 339 336 333 330 329 329
242 240 238 233 229 227 225 223 222 221 221 220 218 217 217 216 215 215 214 212 210 209 209 208 207 206 204 203 203 202 201 199 199 200 201 201 202 202 202 202 202 203 204 206 208 211 209 203 211 235 257 269 276 287 302 312 327 347 354 353 354 355 355 354 358 1 360 3 4 360 357 354 348 346 340 332 335 340 343 344 341 335 332 331 333
243 240 237 234 231 229 227 225 224 223 222 221 220 220 219 217 215 215 215 215 213 211 210 209 209 208 207 205 204 202 201 199 199 199 199 200 200 201 201 201 200 199 198 201 204 207 212 215 215 231 250 262 274 286 300 319 332 342 343 344 349 351 349 347 351 357 354 353 356 350 343 339 332 328 324 324 333 342 345 344 340 335 334 334 336
245 240 237 235 233 231 230 228 226 225 222 221 221 221 220 218 216 215 215 214 214 213 212 211 210 210 208 206 204 204 203 202 201 200 198 198 199 201 201 200 197 194 193 195 199 201 206 211 214 224 234 245 264 276 288 320 330 326 326 330 334 335 335 332 332 336 334 326 321 317 318 317 312 312 318 327 337 342 343 341 338 336 336 337 338
249 245 241 238 236 234 232 231 229 227 224 223 222 221 220 218 217 217 216 215 214 213 213 212 211 210 209 207 206 206 205 204 204 203 201 199 198 197 199 198 194 192 190 190 192 195 198 200 203 209 216 226 241 253 265 270 273 287 287 281 294 304 305 299 299 300 293 279 271 276 291 299 303 311 323 333 338 340 339 337 338 338 338 338 335
260 253 247 243 239 237 235 232 230 228 226 225 224 222 219 217 216 217 218 218 217 215 213 212 212 211 209 207 208 208 207 205 205 205 205 203 201 198 196 195 193 191 189 187 187 188 188 188 189 189 195 207 213 220 227 219 221 239 241 243 258 268 275 276 273 272 263 248 252 268 284 298 308 316 328 333 336 337 334 333 336 337 338 336 328
270 262 254 248 243 239 237 234 231 229 228 228 227 224 222 219 217 216 216 218 219 218 216 213 211 210 209 209 209 209 207 205 204 205 204 204 205 204 201 198 195 192 189 186 186 186 184 182 181 179 184 199 203 202 207 208 211 221 231 237 242 246 255 259 261 262 240 230 264 279 289 308 320 324 330 332 333 333 329 329 334 335 335 333 326
279 268 258 252 247 242 239 236 233 231 230 230 229 227 225 222 219 217 216 217 217 219 220 216 212 210 208 208 208 207 206 205 203 203 203 203 203 204 205 204 202 200 196 190 186 185 185 185 183 180 182 193 199 198 200 204 208 216 223 225 230 237 237 238 258 257 229 248 287 289 290 316 333 333 331 331 331 331 329 330 334 334 331 327 322
290 275 263 255 250 245 241 238 236 234 234 233 230 228 226 224 221 219 218 217 216 216 218 219 216 212 208 206 206 206 206 204 201 201 201 202 201 201 202 203 204 206 208 205 198 192 190 187 184 184 186 188 192 195 196 198 204 212 218 222 227 227 223 234 251 249 248 278 299 295 294 324 338 333 328 329 330 330 330 331 333 329 319 314 312
300 283 270 261 254 248 243 240 239 238 237 235 232 229 227 224 222 221 219 219 218 217 216 217 217 214 209 205 204 204 204 202 200 199 197 197 198 199 200 200 202 204 208 212 213 209 202 194 187 188 190 187 188 193 194 195 201 208 214 224 227 219 223 240 246 257 279 297 306 301 300 322 331 328 325 327 328 329 330 331 332 326 314 309 309
303 289 277 267 259 252 247 243 242 241 239 237 233 230 228 224 222 221 220 220 220 219 217 215 215 213 211 207 203 201 200 199 198 197 194 192 192 193 193 195 198 202 204 205 207 209 208 201 196 196 193 188 188 193 195 197 204 212 219 225 223 215 231 252 261 277 294 307 317 316 301 314 327 326 322 324 325 326 328 328 328 328 323 316 313
304 292 282 272 264 257 251 247 245 244 242 239 235 231 228 225 222 221 220 221 221 221 219 217 215 214 212 209 206 202 198 198 198 196 193 190 187 186 188 191 194 198 200 201 200 197 198 200 201 198 190 188 193 194 195 202 211 219 223 223 227 236 255 271 280 292 307 324 333 328 293 311 327 321 313 321 326 325 326 327 327 329 330 326 321
303 293 283 274 266 261 256 250 247 246 245 241 236 233 229 225 222 219 219 221 221 221 220 217 216 214 213 210 207 203 200 198 197 195 194 191 186 184 185 188 191 194 195 197 197 195 197 201 201 195 190 193 195 191 197 210 216 220 223 228 241 253 264 280 291 302 320 332 336 334 295 310 326 320 311 321 326 321 321 325 327 328 329 328 326
302 293 285 278 270 264 259 253 249 248 247 244 239 235 230 224 219 218 218 219 221 221 220 217 215 214 213 211 207 204 201 198 195 192 192 191 186 183 183 183 185 189 192 193 195 197 201 202 199 198 199 198 194 200 213 219 216 221 227 235 247 256 260 276 288 294 318 335 348 0 324 312 324 324 318 321 322 317 319 326 328 325 325 326 327
298 294 288 282 274 267 260 256 252 250 249 246 241 236 230 222 218 218 218 218 219 220 219 217 215 212 211 210 208 205 202 199 195 191 190 190 187 184 182 181 182 187 190 190 190 192 197 200 201 204 205 203 203 209 212 209 209 221 234 242 251 254 251 247 217 274 318 341 12 10 336 320 326 331 328 324 320 315 321 327 325 323 324 327 328
295 293 289 283 276 270 263 258 254 251 250 248 243 237 229 220 218 219 218 217 217 217 216 213 211 209 208 207 207 207 204 200 195 190 188 189 188 186 184 183 183 188 190 189 187 186 189 196 201 204 203 202 203 206 208 211 218 230 244 251 250 245 241 235 211 252 326 7 124 334 332 323 326 335 339 334 325 315 323 323 321 321 322 324 323